Location: Calvera
(42.3882°N, 0.6137°E)
Time: 18:57:25
(UTC+00:00)

FENGYUN 3A - Pass Details

Date: 28 October 2020
Orbit: 824 x 835 km, 98.4° (Epoch: 23 November)

Event Time Altitude Azimuth Distance (km) Brightness Sun altitude
Rises 04:23:24 0° 15° (NNE) 3,394 7.1 -23.2°
Reaches altitude 10° 04:25:47 10° 18° (NNE) 2,456 6.3 -22.8°
Maximum altitude 04:31:13 69° 102° (ESE) 893 3.9 -21.8°
Drops below altitude 10° 04:36:37 10° 186° (S) 2,438 6.0 -20.8°
Sets 04:38:58 0° 188° (S) 3,367 6.7 -20.4°
